Location: Zagreb
(45.8000°N, 16.0000°E)
Time: 22:29:07
(UTC+01:00)

Tiros 1 despin weight - Pass Details

Date: 30 January 2020
Orbit: 594 x 642 km, 48.2° (Epoch: 24 February)

Event Time Altitude Azimuth Distance (km) Brightness Sun altitude
Rises 10:20:02 0° 248° (WSW) 2,843 ? 21.8°
Reaches altitude 10° 10:22:18 10° 247° (WSW) 1,948 ? 22.0°
Maximum altitude 10:26:47 84° 161° (SSE) 619 ? 22.3°
Drops below altitude 10° 10:31:21 10° 73° (ENE) 1,984 ? 22.7°
Sets 10:33:41 0° 72° (ENE) 2,900 ? 22.9°
